Terminal Aerodrome Forecast
Issued by NWS State College, PA

Current Version | Previous Version | Text Only | Print | Product List | Glossary On
Versions: 1 2 3 4 5 6 7 8 9 10 11 12 13 14 15 16 17 18 19 20 21 22 23 24 25 26 27 28 29 30 31 32 33 34 35 36 37 38 39 40 41 42 43 44 45 46 47 48 49 50
000
FTUS41 KCTP 131736
TAFIPT
TAF
KIPT 131736Z 1318/1418 VRB04KT P6SM SCT020 BKN040
     FM132100 15005KT P6SM -SHRA VCTS BKN040CB
     FM140200 12004KT P6SM SCT050
     FM140700 VRB03KT 4SM BR OVC010
     FM141300 23006KT P6SM BKN100=

USA.gov is the U.S. government's official web portal to all federal, state and local government web resources and services.